Bremerton, WA

1:12 PM PST on November 16, 2019 (GMT -0800)
Bremerton National

Weather History for KPWT - October, 2019

Change the Weather History Date:

Wednesday, October 23, 2019

  Actual Average Record
Temperature  
Mean Temperature 46 °F -  
Max Temperature 55 °F 53 °F 75 °F (2007)
Min Temperature 37 °F 38 °F 35 °F (1998)
Degree Days  
Heating Degree Days 19    
Moisture  
Dew Point 41 °F    
Average Humidity 93    
Maximum Humidity 100    
Minimum Humidity 69    
Precipitation  
Precipitation 0.00 in - - ()
Sea Level Pressure  
Sea Level Pressure 30.51 in    
Wind  
Wind Speed 2 mph ()    
Max Wind Speed 12 mph    
Max Gust Speed -    
Visibility 5.8 miles    
Events Fog    
Averages and records for this station are not official NWS values.
T = Trace of Precipitation, MM = Missing Value Source: Averaged Metar Reports

Daily Weather History Graph

Daily Weather History Graph

Search for Another Location

Airport or City:

Astronomy

Oct. 23, 2019 Rise Set
Actual Time 7:41 AM PDT 6:08 PM PDT
Civil Twilight 7:09 AM PDT 6:40 PM PDT
Nautical Twilight 6:33 AM PDT 7:15 PM PDT
Astronomical Twilight 5:58 AM PDT 7:51 PM PDT
Moon 1:35 AM PDT (10/23) 4:29 PM PDT (10/23)
Length of Visible Light 11h 30m
Length of Day
10h 27m
Waning Crescent, 25% of the Moon is Illuminated
Oct 23
Waning Crescent
Oct 27
New
Nov 4
First Quarter
Nov 12
Full
Nov 19
Last Quarter

Hourly Weather History & Observations

Time (PDT) Temp. Windchill Dew Point Humidity Pressure Visibility Wind Dir Wind Speed Gust Speed Precip Events Conditions
12:56 AM 48.0 °F - 46.9 °F 96% 30.51 in 10.0 mi ENE 5.8 mph - N/A   Mostly Cloudy
1:56 AM 44.1 °F - 43.0 °F 96% 30.52 in 4.0 mi Calm Calm - N/A   Clear
2:00 AM 44.6 °F - 42.8 °F 93% 30.45 in 1.8 mi Calm Calm - N/A   Clear
2:04 AM 42.8 °F - 42.8 °F 100% 30.46 in 0.8 mi Calm Calm - N/A   Clear
2:12 AM 42.8 °F - 42.8 °F 100% 30.46 in 0.5 mi Calm Calm - N/A Fog Fog
2:19 AM 44.6 °F 43.1 °F 44.6 °F 100% 30.46 in 1.0 mi ESE 3.5 mph - N/A   Clear
2:22 AM 44.6 °F - 44.6 °F 100% 30.46 in 3.0 mi Calm Calm - N/A   Partly Cloudy
2:56 AM 43.0 °F - 42.1 °F 97% 30.53 in 10.0 mi Calm Calm - N/A   Partly Cloudy
3:45 AM 41.0 °F - 39.2 °F 93% 30.46 in 1.5 mi Calm Calm - N/A   Clear
3:56 AM 42.1 °F - 42.1 °F 100% 30.53 in 2.5 mi Calm Calm - N/A   Clear
4:03 AM 41.0 °F - 41.0 °F 100% 30.46 in 7.0 mi Calm Calm - N/A   Clear
4:21 AM 39.2 °F - 39.2 °F 100% 30.47 in 0.8 mi Calm Calm - N/A   Clear
4:29 AM 39.2 °F - 39.2 °F 100% 30.47 in 1.5 mi Calm Calm - N/A   Clear
4:32 AM 41.0 °F - 39.2 °F 93% 30.47 in 4.0 mi Calm Calm - N/A   Clear
4:56 AM 39.0 °F - 39.0 °F 100% 30.53 in 8.0 mi Calm Calm - N/A   Partly Cloudy
5:04 AM 39.2 °F - 39.2 °F 100% 30.47 in 1.5 mi Calm Calm - N/A   Partly Cloudy
5:12 AM 39.2 °F - 39.2 °F 100% 30.47 in 1.0 mi Calm Calm - N/A   Scattered Clouds
5:14 AM 39.2 °F - 39.2 °F 100% 30.47 in 2.0 mi Calm Calm - N/A   Scattered Clouds
5:21 AM 39.2 °F - 37.4 °F 93% 30.47 in 10.0 mi Calm Calm - N/A   Mostly Cloudy
5:56 AM 39.9 °F - 39.0 °F 97% 30.54 in 2.0 mi Calm Calm - N/A   Mostly Cloudy
6:06 AM 39.2 °F 37.0 °F 39.2 °F 100% 30.48 in 10.0 mi SW 3.5 mph - N/A   Mostly Cloudy
6:56 AM 37.9 °F - 37.0 °F 97% 30.55 in 10.0 mi Calm Calm - N/A   Clear
7:13 AM 39.2 °F - 37.4 °F 93% 30.49 in 1.8 mi Calm Calm - N/A   Clear
7:26 AM 37.4 °F - 37.4 °F 100% 30.48 in 1.8 mi Calm Calm - N/A   Clear
7:34 AM 37.4 °F - 35.6 °F 93% 30.49 in 0.8 mi Calm Calm - N/A   Clear
7:41 AM 37.4 °F - 37.4 °F 100% 30.49 in 0.2 mi Calm Calm - N/A Fog Fog
7:56 AM 39.0 °F - 37.9 °F 96% 30.55 in 0.8 mi Calm Calm - N/A   Clear
8:10 AM 37.4 °F - 37.4 °F 100% 30.50 in 0.5 mi Calm Calm - N/A Fog Fog
8:14 AM 39.2 °F - 37.4 °F 93% 30.50 in 1.0 mi Calm Calm - N/A   Clear
8:16 AM 39.2 °F - 39.2 °F 100% 30.50 in 2.0 mi Calm Calm - N/A   Clear
8:23 AM 41.0 °F - 41.0 °F 100% 30.51 in 10.0 mi Calm Calm - N/A   Clear
8:56 AM 46.0 °F 43.9 °F 45.0 °F 96% 30.57 in 10.0 mi East 4.6 mph - N/A   Clear
9:56 AM 48.0 °F - 46.0 °F 93% 30.58 in 10.0 mi NNE 9.2 mph - N/A   Clear
10:56 AM 52.0 °F - 46.0 °F 80% 30.57 in 10.0 mi NNE 11.5 mph - N/A   Clear
11:56 AM 52.0 °F - 46.0 °F 80% 30.58 in 10.0 mi ENE 9.2 mph - N/A   Partly Cloudy
12:56 PM 53.1 °F - 45.0 °F 74% 30.57 in 10.0 mi NE 8.1 mph - N/A   Clear
1:56 PM 55.0 °F - 45.0 °F 69% - 10.0 mi NE 9.2 mph - N/A   Clear
2:56 PM 55.0 °F - 45.0 °F 69% 30.54 in 10.0 mi NNE 5.8 mph - N/A   Clear
3:56 PM 54.0 °F - 45.0 °F 72% 30.54 in 10.0 mi NE 8.1 mph - N/A   Clear
4:56 PM 54.0 °F - 46.0 °F 75% 30.54 in 10.0 mi NNE 6.9 mph - N/A   Clear
5:56 PM 50.0 °F - 45.0 °F 83% 30.53 in 10.0 mi NE 8.1 mph - N/A   Clear
6:56 PM 46.9 °F - 44.1 °F 90% 30.52 in 10.0 mi ENE 5.8 mph - N/A   Clear
7:56 PM 46.9 °F - 43.0 °F 86% 30.52 in 10.0 mi NE 6.9 mph - N/A   Clear
8:56 PM 44.1 °F - 42.1 °F 93% 30.53 in 10.0 mi Calm Calm - N/A   Clear
9:56 PM 45.0 °F 41.8 °F 43.0 °F 93% 30.51 in 10.0 mi ENE 5.8 mph - N/A   Clear
10:56 PM 42.1 °F - 39.9 °F 92% 30.51 in 10.0 mi Calm Calm - N/A   Clear
11:56 PM 39.9 °F - 39.0 °F 97% 30.51 in 10.0 mi Calm Calm - N/A   Clear